Showing default

TIANMU-1 15, 58700

Orbit data source: Space-Track

TIANMU-1 15, 58700 is a payload satellite owned by Hangtian Tianmu (CN) in SSO that was launched on Fri, 05 Jan 2024 UTC via a KUAIZHOU-1A launch vehicle from the Jiuquan Satellite Launch Center, China (JSC). Payload-class satellites include a variety of spacecraft equipped with specific instruments for various scientific and technological missions. These include communications satellites like Starlink; space stations such as the ISS; scientific satellites like the Hubble; Earth observation satellites from companies like Planet Labs, Umbra, and HawkEye 360; GPS; miniature CubeSats for education and research; and military/defense satellites.

Loading next visibility...
Identifier
58700, 2024-004A
Orbit
SSO
Last TLE update
6 hours ago
Origin
Manufacturer
Hangtian Tianmu
Mission
Operational Commercial Weather
Bus & Motor
TIANMU, Unknown motor
Mass
50 kg wet, ~50 kg dry
Launch date (UTC)
2024-01-05 (1 year ago)
Launch vehicle
KUAIZHOU-1A
Launch site
Jiuquan Satellite Launch Center, China (JSC)
Object type
Payload
Rocket body
Debris
Shape & HBR
Box, 1.5 m
Radar Cross Section
2.000 m², Large (>1 m²)

Expand to show TLE details & history

TLE from 6 hours ago
0 TIANMU-1 15
1 58700U 24004A   25128.90145888  .00006543  00000-0  29315-3 0  9992
2 58700  97.4657 311.6945 0006467 351.0977   9.0143 15.21566826 74194
Epoch: 2025-05-08T21:38Z
Definitive object data (Epoch: 2025-05-08T21:38:06.047Z)
Latitude
-0.00001°
Longitude
120.204°
Altitude
499.81 km
Speed
7.617 km/s
True Right ascension
20h 46m 46s
True Declination
0° 00' 00"
Sunlit
Object was in daylight at TLE epoch
Visualization TLE readout
Latitude
-62.84712°
Longitude
135.1734°
Altitude
522.596 km
Speed
7.602 km/s
Apparent Right ascension
23h 01m 04s
Apparent Declination
-52° 36' 42"
Sunlit
Object is in daylight
Visualization observer readout
Local Sidereal Time
11:48:31
Azimuth
151.306° SSE
Elevation
-74.928°
Doppler factor
1
Orbital elements
Apogee altitude
502.527 km
Perigee altitude
493.633 km
Semi-major axis
6,876.217 km
Eccentricity
0.0006467
Inclination
97.4657°
RAAN
311.6945°
Arg. of periapsis
351.0977°
True anomaly
9.02592°
Mean anomaly
9.0143°
Eccentric anomaly
9.02011°
Mean motion
3.80644 °/min
BSTAR
0.00029315
Orbital period
94.58 mins
Loading maneuver chart data...
Loading SW <> Apogee altitude chart data...
Loading historical data...
Loading historical data...
Loading historical data...
Loading historical data...
Loading historical data...
Loading historical data...
Loading historical data...
Other satellites on launch #4 in the year 2024 (2024-01-05 UTC)

TIANMU-1 15 Visibility forecast

Observer location: undefined°, undefined°

Span
Click to sort rows by Start time (UTC) header in descending order
Start Az.
Max El. time (UTC)
Max El. Az.
Max El.
End time (UTC)
End Az.
6 mins2025-05-09 11:58:09.194Z152.767° SSE2025-05-09 12:01:09.194Z72.067° E40.542°2025-05-09 12:04:09.194Z357.695° N
6 mins2025-05-10 01:02:09.194Z11.99° NNE2025-05-10 01:05:09.194Z193.631° SSW42.635°2025-05-10 01:08:09.194Z193.227° SSW
|